Location: Pedimozza
(42.0500°N, 9.3500°E)
Time: 02:07:58
(UTC+00:00)

Cosmos 2360 Rocket - Pass Details

Date: 19 August 2019
Orbit: 833 x 846 km, 71.0° (Epoch: 23 October)

Event Time Altitude Azimuth Distance (km) Brightness Sun altitude
Rises 23:11:05 0° 340° (NNW) 3,391 6.3 -35.2°
Reaches altitude 10° 23:13:36 10° 345° (NNW) 2,455 5.4 -35.3°
Enters shadow 23:17:22 38° 13° (NNE) 1,261 3.4 -35.3°
